AC0ID-13 Weather Reports


time (UTC)temp
C
wind
direction
speed
KPH
gust
KPH
rain 1hr
cm
rain 24hr
cm
rain mn
cm
humidity
%
barometer
mb
20260831104523 21 220 0.0 3.2 0.00 0.00 0.00 91 1009.1
20260831104006 21 238 0.0 3.2 0.00 0.00 0.00 91 1009.1
20260831103509 21 214 0.0 3.2 0.00 0.00 0.00 91 1009.1
20260831103023 21 232 0.0 4.8 0.00 0.00 0.00 91 1009.2
20260831102518 21 250 0.0 6.4 0.00 0.00 0.00 91 1009.3
20260831102008 21 169 0.0 6.4 0.00 0.00 0.00 91 1009.2
20260831101518 21 244 0.0 4.8 0.00 0.00 0.00 90 1009.3
20260831101003 21 251 0.0 1.6 0.00 0.00 0.00 90 1009.2
20260831100503 21 263 0.0 3.2 0.00 0.00 0.00 90 1009.3
20260831100014 21 232 0.0 3.2 0.00 0.00 0.00 90 1009.2
20260831095508 21 245 0.0 1.6 0.00 0.00 0.00 90 1009.3
20260831095016 21 202 0.0 3.2 0.00 0.00 0.00 90 1009.2
20260831094513 22 202 0.0 3.2 0.00 0.00 0.00 90 1009.3
20260831094013 22 240 0.0 3.2 0.00 0.00 0.00 90 1009.3
20260831093516 22 252 0.0 3.2 0.00 0.00 0.00 90 1009.3
20260831093013 22 165 0.0 3.2 0.00 0.00 0.00 90 1009.3
20260831092509 22 187 0.0 1.6 0.00 0.00 0.00 90 1009.3
20260831092014 22 187 0.0 4.8 0.00 0.00 0.00 90 1009.2
20260831091528 22 144 0.0 4.8 0.00 0.00 0.00 90 1009.1
20260831091012 22 130 0.0 3.2 0.00 0.00 0.00 90 1009.2
20260831090510 22 252 0.0 3.2 0.00 0.00 0.00 90 1009.2
20260831090027 22 121 0.0 3.2 0.00 0.00 0.00 90 1009.2
20260831085516 22 87 0.0 3.2 0.00 0.00 0.00 90 1009.3
20260831085006 22 86 0.0 3.2 0.00 0.00 0.00 89 1009.2
20260831084515 22 86 0.0 3.2 0.00 0.00 0.00 89 1009.3
20260831084008 22 119 0.0 3.2 0.00 0.00 0.00 89 1009.2
20260831083507 22 117 0.0 3.2 0.00 0.00 0.00 89 1009.1
20260831083034 22 123 0.0 4.8 0.00 0.00 0.00 89 1009.0
20260831082513 22 123 0.0 4.8 0.00 0.00 0.00 89 1009.1
20260831082011 22 200 0.0 3.2 0.00 0.00 0.00 89 1009.0
20260831081515 22 259 0.0 1.6 0.00 0.00 0.00 89 1009.0
20260831081013 22 107 0.0 3.2 0.00 0.00 0.00 89 1009.0
20260831080514 22 142 0.0 4.8 0.00 0.00 0.00 89 1009.0
20260831080024 22 124 0.0 6.4 0.00 0.00 0.00 89 1009.0
20260831075512 22 140 0.0 6.4 0.00 0.00 0.00 89 1009.0
20260831075014 22 117 1.6 4.8 0.00 0.00 0.00 88 1009.2
20260831074530 22 125 0.0 4.8 0.00 0.00 0.00 88 1009.2
20260831074008 22 125 0.0 4.8 0.00 0.00 0.00 88 1009.3
20260831073507 22 101 0.0 3.2 0.00 0.00 0.00 88 1009.2
20260831073018 22 147 0.0 4.8 0.00 0.00 0.00 88 1009.3
20260831072511 22 121 0.0 4.8 0.00 0.00 0.00 88 1009.3
20260831072010 22 144 1.6 4.8 0.00 0.00 0.00 88 1009.3
20260831071521 22 152 1.6 4.8 0.00 0.00 0.00 88 1009.3
20260831071014 22 104 0.0 6.4 0.00 0.00 0.00 88 1009.4
20260831070508 22 120 0.0 6.4 0.00 0.00 0.00 88 1009.4
20260831070024 22 142 0.0 4.8 0.00 0.00 0.00 88 1009.4
20260831065514 22 90 0.0 4.8 0.00 0.00 0.00 88 1009.4
20260831065015 22 100 1.6 9.7 0.00 0.00 0.00 87 1009.5
20260831064519 22 121 0.0 9.7 0.00 0.00 0.00 87 1009.6
20260831064013 22 249 0.0 6.4 0.00 0.00 0.00 87 1009.5
20260831063514 22 106 1.6 6.4 0.00 0.00 0.00 87 1009.6
20260831063019 22 117 0.0 4.8 0.00 0.00 0.00 87 1009.7
20260831062513 22 96 0.0 4.8 0.00 0.00 0.00 87 1009.8
20260831062016 22 132 0.0 4.8 0.00 0.00 0.00 87 1009.8
20260831061518 22 156 0.0 6.4 0.00 0.00 0.00 86 1009.9
20260831061012 22 238 1.6 6.4 0.00 0.00 0.00 86 1010.0
20260831060512 22 126 1.6 6.4 0.00 0.00 0.00 86 1010.0
20260831060024 22 138 0.0 4.8 0.00 0.00 0.00 86 1009.9
20260831055511 22 123 0.0 9.7 0.00 0.00 0.00 86 1010.0
20260831055011 22 142 1.6 9.7 0.00 0.00 0.00 86 1010.0
20260831054531 22 142 0.0 9.7 0.00 0.00 0.00 85 1010.1
20260831054019 22 144 0.0 6.4 0.00 0.00 0.00 85 1010.1
20260831053511 22 142 1.6 6.4 0.00 0.00 0.00 85 1010.2
20260831053029 22 116 0.0 4.8 0.00 0.00 0.00 85 1010.2
20260831052521 22 115 1.6 6.4 0.00 0.00 0.00 85 1010.2
20260831052017 22 123 1.6 6.4 0.00 0.00 0.00 84 1010.2
20260831051526 22 150 0.0 6.4 0.00 0.00 0.00 84 1010.3
20260831051016 22 98 1.6 9.7 0.00 0.00 0.00 84 1010.3
20260831050517 22 114 3.2 9.7 0.00 0.00 0.00 84 1010.3
20260831050017 22 146 0.0 9.7 0.00 0.00 0.00 84 1010.3
20260831045512 22 134 0.0 9.7 0.00 0.00 0.00 84 1010.3
20260831045011 22 150 0.0 4.8 0.00 0.00 0.00 83 1010.4
20260831044524 22 117 0.0 11.3 0.00 0.00 0.00 83 1010.3
20260831044013 22 132 0.0 11.3 0.00 0.00 0.00 83 1010.3
20260831043515 22 154 1.6 11.3 0.00 0.00 0.00 83 1010.3
20260831043026 22 130 0.0 9.7 0.00 0.00 0.00 83 1010.3
20260831042513 22 125 1.6 9.7 0.00 0.00 0.00 82 1010.4
20260831042013 22 150 1.6 8.0 0.00 0.00 0.00 82 1010.3
20260831041544 22 144 3.2 6.4 0.00 0.00 0.00 82 1010.3
20260831041004 22 128 1.6 4.8 0.00 0.00 0.00 82 1010.3
20260831040504 23 184 1.6 4.8 0.00 0.00 0.00 82 1010.3
20260831040004 23 146 1.6 12.9 0.00 0.00 0.00 82 1010.3
20260831035506 23 86 4.8 12.9 0.00 0.00 0.00 82 1010.2
20260831035004 23 155 1.6 9.7 0.00 0.00 0.00 81 1010.3
20260831034503 23 62 1.6 11.3 0.00 0.00 0.00 81 1010.3
20260831034003 23 146 1.6 11.3 0.00 0.00 0.00 81 1010.3
20260831033504 23 126 0.0 8.0 0.00 0.00 0.00 81 1010.4
20260831033003 23 59 1.6 14.5 0.00 0.00 0.00 81 1010.6
20260831032503 23 126 0.0 14.5 0.00 0.00 0.00 81 1010.7
20260831032007 23 134 3.2 11.3 0.00 0.00 0.00 81 1010.8
20260831031516 23 142 0.0 11.3 0.00 0.00 0.00 80 1010.8
20260831031004 23 146 3.2 11.3 0.00 0.00 0.00 80 1010.8
20260831030507 23 115 1.6 9.7 0.00 0.00 0.00 80 1010.8
20260831030004 23 176 1.6 14.5 0.00 0.00 0.00 80 1010.9
20260831025503 23 144 4.8 14.5 0.00 0.00 0.00 80 1010.9
20260831025007 23 148 0.0 16.1 0.00 0.00 0.00 80 1010.9
20260831024510 23 214 1.6 16.1 0.00 0.00 0.00 79 1010.9
20260831024004 23 150 1.6 9.7 0.00 0.00 0.00 79 1010.9
20260831023506 23 108 1.6 9.7 0.00 0.00 0.00 79 1010.9
20260831023013 23 153 1.6 12.9 0.00 0.00 0.00 79 1011.0
20260831022504 23 147 1.6 12.9 0.00 0.00 0.00 79 1011.0
20260831022004 23 170 1.6 12.9 0.00 0.00 0.00 79 1011.0
20260831021506 23 219 4.8 12.9 0.00 0.00 0.00 78 1011.0
20260831021005 23 177 1.6 12.9 0.00 0.00 0.00 78 1011.0
20260831020503 23 119 0.0 12.9 0.00 0.00 0.00 78 1011.0
20260831020010 23 176 1.6 12.9 0.00 0.00 0.00 78 1011.0
20260831015503 23 134 1.6 11.3 0.00 0.00 0.00 77 1010.9
20260831015006 23 160 1.6 11.3 0.00 0.00 0.00 77 1011.0
20260831014509 23 117 3.2 11.3 0.00 0.00 0.00 77 1010.9
20260831014007 23 217 3.2 17.7 0.00 0.00 0.00 76 1010.8
20260831013507 23 109 1.6 17.7 0.00 0.00 0.00 76 1010.9
20260831013017 23 125 3.2 11.3 0.00 0.00 0.00 76 1010.8
20260831012506 24 109 4.8 11.3 0.00 0.00 0.00 75 1010.7
20260831012004 24 258 3.2 19.3 0.00 0.00 0.00 75 1010.6
20260831011514 24 198 6.4 19.3 0.00 0.00 0.00 75 1010.5
20260831011005 24 111 3.2 19.3 0.00 0.00 0.00 74 1010.5
20260831010506 24 137 3.2 14.5 0.00 0.00 0.00 74 1010.4
20260831010016 24 111 1.6 22.5 0.00 0.00 0.00 74 1010.4
20260831005509 25 132 3.2 22.5 0.00 0.00 0.00 73 1010.3
20260831005006 25 107 6.4 20.9 0.00 0.00 0.00 74 1010.2
20260831004508 25 119 4.8 12.9 0.00 0.00 0.00 74 1010.2
20260831004008 25 222 1.6 12.9 0.00 0.00 0.00 74 1010.4
20260831003508 25 82 1.6 12.9 0.00 0.00 0.00 73 1010.4
20260831003011 25 261 3.2 14.5 0.00 0.00 0.00 73 1010.4
20260831002508 25 147 1.6 14.5 0.00 0.00 0.00 72 1010.6
20260831002010 25 232 1.6 9.7 0.00 0.00 0.00 72 1010.7
20260831001511 25 128 1.6 12.9 0.00 0.00 0.00 72 1010.6
20260831001009 25 84 3.2 12.9 0.00 0.00 0.00 72 1010.6
20260831000509 25 116 3.2 14.5 0.00 0.00 0.00 72 1010.7
20260831000021 25 105 4.8 14.5 0.00 0.00 0.00 72 1010.7
20260830235506 25 148 3.2 14.5 0.00 0.00 0.00 71 1010.6
20260830235007 26 154 1.6 14.5 0.00 0.00 0.00 71 1010.5
20260830234515 26 223 4.8 14.5 0.00 0.00 0.00 70 1010.4
20260830234011 26 118 1.6 12.9 0.00 0.00 0.00 69 1010.5
20260830233507 26 304 4.8 12.9 0.00 0.00 0.00 69 1010.6
20260830233018 26 228 1.6 9.7 0.00 0.00 0.00 68 1010.6
20260830232508 26 145 1.6 14.5 0.00 0.00 0.00 67 1010.7
20260830232010 26 254 3.2 14.5 0.00 0.00 0.00 66 1010.7
20260830231513 27 96 1.6 12.9 0.00 0.00 0.00 65 1010.6
20260830231008 27 211 3.2 17.7 0.00 0.00 0.00 65 1010.4
20260830230511 27 144 4.8 17.7 0.00 0.00 0.00 65 1010.4
20260830230015 27 98 1.6 11.3 0.00 0.00 0.00 64 1010.3
20260830225508 27 98 0.0 12.9 0.00 0.00 0.00 64 1010.2
20260830225011 27 204 3.2 12.9 0.00 0.00 0.00 63 1010.1
20260830224516 28 119 1.6 16.1 0.00 0.00 0.00 63 1010.0
20260830224010 28 104 1.6 16.1 0.00 0.00 0.00 62 1010.1
20260830223510 28 103 3.2 16.1 0.00 0.00 0.00 62 1010.0
20260830223015 28 277 1.6 16.1 0.00 0.00 0.00 63 1010.0
20260830222509 28 223 3.2 16.1 0.00 0.00 0.00 62 1009.9
20260830222012 28 265 3.2 12.9 0.00 0.00 0.00 64 1009.9
20260830221517 28 296 1.6 12.9 0.00 0.00 0.00 65 1009.9
20260830221008 28 160 1.6 8.0 0.00 0.00 0.00 65 1009.9
20260830220510 28 107 1.6 9.7 0.00 0.00 0.00 64 1009.8
20260830220018 28 109 3.2 9.7 0.00 0.00 0.00 64 1009.8
20260830215512 28 113 3.2 12.9 0.00 0.00 0.00 65 1009.9
20260830215015 28 311 1.6 12.9 0.00 0.00 0.00 64 1010.0
20260830214515 28 204 3.2 19.3 0.00 0.00 0.00 62 1010.0
20260830214012 28 232 3.2 19.3 0.00 0.00 0.00 61 1009.9
20260830213512 29 237 1.6 12.9 0.00 0.00 0.00 60 1009.9
20260830213019 28 104 1.6 12.9 0.00 0.00 0.00 62 1009.7
20260830212510 28 160 3.2 14.5 0.00 0.00 0.00 63 1009.7
20260830212010 28 326 4.8 14.5 0.00 0.00 0.00 62 1009.6
20260830211520 28 211 3.2 16.1 0.00 0.00 0.00 62 1009.7
20260830211012 29 177 1.6 24.1 0.00 0.00 0.00 62 1009.6
20260830210513 29 165 3.2 24.1 0.00 0.00 0.00 62 1009.7
20260830210029 30 132 3.2 14.5 0.00 0.00 0.00 60 1009.7
20260830205515 30 160 1.6 14.5 0.00 0.00 0.00 62 1009.8
20260830205012 30 126 1.6 14.5 0.00 0.00 0.00 60 1009.9
20260830204504 30 129 3.2 9.7 0.00 0.00 0.00 59 1009.8
20260830204003 30 127 1.6 9.7 0.00 0.00 0.00 60 1009.7
20260830203505 30 96 3.2 12.9 0.00 0.00 0.00 60 1009.6
20260830203003 30 112 3.2 14.5 0.00 0.00 0.00 61 1009.4
20260830202504 30 153 4.8 14.5 0.00 0.00 0.00 60 1009.6
20260830202006 30 142 1.6 14.5 0.00 0.00 0.00 60 1009.7
20260830201510 30 82 4.8 12.9 0.00 0.00 0.00 63 1009.9
20260830201002 30 189 3.2 14.5 0.00 0.00 0.00 61 1010.0
20260830200506 30 133 3.2 14.5 0.00 0.00 0.00 62 1010.1
20260830200014 30 71 1.6 19.3 0.00 0.00 0.00 64 1010.2
20260830195511 29 148 1.6 19.3 0.00 0.00 0.00 63 1010.2
20260830195005 30 88 1.6 14.5 0.00 0.00 0.00 63 1010.2
20260830194518 29 227 4.8 14.5 0.00 0.00 0.00 64 1010.1
20260830194013 29 215 1.6 14.5 0.00 0.00 0.00 65 1010.2
20260830193503 29 104 4.8 14.5 0.00 0.00 0.00 67 1010.2
20260830193004 28 241 1.6 16.1 0.00 0.00 0.00 69 1010.2
20260830192502 29 118 4.8 16.1 0.00 0.00 0.00 67 1010.1
20260830192005 29 185 1.6 12.9 0.00 0.00 0.00 68 1010.1
20260830191507 28 161 1.6 12.9 0.00 0.00 0.00 68 1010.1
20260830191005 28 243 1.6 16.1 0.00 0.00 0.00 67 1010.1
20260830190507 28 121 3.2 16.1 0.00 0.00 0.00 65 1010.1
20260830190005 28 105 4.8 14.5 0.00 0.00 0.00 65 1009.9
20260830185509 29 98 1.6 17.7 0.00 0.00 0.00 64 1010.0
20260830185011 30 144 3.2 17.7 0.00 0.00 0.00 61 1009.9
20260830184519 30 157 3.2 11.3 0.00 0.00 0.00 60 1009.8
20260830184004 30 149 3.2 14.5 0.00 0.00 0.00 64 1009.7
20260830183510 29 159 1.6 14.5 0.00 0.00 0.00 64 1009.7
20260830183020 30 148 3.2 11.3 0.00 0.00 0.00 62 1009.8
20260830182516 30 178 1.6 6.4 0.00 0.00 0.00 61 1009.8
20260830182007 30 198 1.6 6.4 0.00 0.00 0.00 62 1009.8
20260830181516 30 123 1.6 9.7 0.00 0.00 0.00 61 1009.8
20260830181005 30 119 0.0 9.7 0.00 0.00 0.00 63 1009.8
20260830180507 30 90 1.6 4.8 0.00 0.00 0.00 63 1009.8
20260830180007 30 213 0.0 6.4 0.00 0.00 0.00 65 1009.8
20260830175506 29 107 1.6 6.4 0.00 0.00 0.00 65 1009.9
20260830175008 28 91 1.6 4.8 0.00 0.00 0.00 62 1010.1
20260830174510 28 352 0.0 4.8 0.00 0.00 0.00 67 1010.2
20260830174008 28 138 0.0 4.8 0.00 0.00 0.00 68 1010.2
20260830173509 27 167 0.0 3.2 0.00 0.00 0.00 68 1010.3
20260830173007 27 261 0.0 4.8 0.00 0.00 0.00 72 1010.4
20260830172511 26 274 0.0 6.4 0.00 0.00 0.00 71 1010.4
20260830172011 26 211 0.0 6.4 0.00 0.00 0.00 72 1010.7
20260830171527 26 112 1.6 11.3 0.00 0.00 0.00 72 1010.9
20260830171007 26 211 1.6 12.9 0.00 0.00 0.00 72 1011.0
20260830170510 26 257 3.2 12.9 0.00 0.00 0.00 72 1011.2
20260830170025 26 221 4.8 14.5 0.00 0.00 0.00 72 1011.4
20260830165504 26 134 1.6 14.5 0.00 0.00 0.00 73 1011.3
20260830165007 26 133 3.2 8.0 0.00 0.00 0.00 72 1011.3
20260830164519 26 95 1.6 12.9 0.00 0.00 0.00 73 1011.2
20260830164009 26 328 1.6 12.9 0.00 0.00 0.00 71 1011.3
20260830163507 27 243 0.0 6.4 0.00 0.00 0.00 72 1011.3
20260830163015 27 161 1.6 8.0 0.00 0.00 0.00 71 1011.3
20260830162511 27 206 1.6 8.0 0.00 0.00 0.00 69 1011.1
20260830162012 27 257 0.0 6.4 0.00 0.00 0.00 70 1010.8
20260830161510 28 228 1.6 6.4 0.00 0.00 0.00 69 1010.7
20260830161015 28 209 1.6 8.0 0.00 0.00 0.00 68 1010.4
20260830160516 28 236 0.0 9.7 0.00 0.00 0.00 68 1010.3
20260830160012 27 257 0.0 9.7 0.00 0.00 0.00 69 1010.3
20260830155510 27 269 0.0 6.4 0.00 0.00 0.00 71 1010.2
20260830155015 27 260 0.0 6.4 0.00 0.00 0.00 69 1010.1
20260830154528 27 219 0.0 3.2 0.00 0.00 0.00 71 1010.0
20260830154008 27 142 0.0 4.8 0.00 0.00 0.00 71 1010.0
20260830153507 27 115 1.6 4.8 0.00 0.00 0.00 72 1010.0
20260830153013 26 273 0.0 4.8 0.00 0.00 0.00 72 1010.0
20260830152511 26 107 0.0 3.2 0.00 0.00 0.00 72 1009.9
20260830152013 26 107 0.0 3.2 0.00 0.00 0.00 73 1010.0
20260830151520 26 269 0.0 3.2 0.00 0.00 0.00 73 1009.9
20260830151012 26 132 0.0 3.2 0.00 0.00 0.00 73 1009.8
20260830150508 26 135 0.0 6.4 0.00 0.00 0.00 74 1009.7
20260830150023 25 144 1.6 6.4 0.00 0.00 0.00 74 1009.8
20260830145519 25 98 0.0 4.8 0.00 0.00 0.00 74 1009.9
20260830145013 25 137 0.0 4.8 0.00 0.00 0.00 76 1009.9
20260830144503 25 254 1.6 4.8 0.00 0.00 0.00 76 1009.8
20260830144003 25 103 0.0 4.8 0.00 0.00 0.00 77 1009.8
20260830143504 24 182 0.0 3.2 0.00 0.00 0.00 79 1009.8
20260830143010 23 244 0.0 3.2 0.00 0.00 0.00 80 1009.7
20260830142508 23 221 0.0 6.4 0.00 0.00 0.00 81 1009.7
20260830142004 23 221 0.0 6.4 0.00 0.00 0.00 81 1009.8
20260830141520 23 145 0.0 6.4 0.00 0.00 0.00 82 1009.7
20260830141012 23 128 0.0 4.8 0.00 0.00 0.00 82 1009.8
20260830140510 22 128 0.0 4.8 0.00 0.00 0.00 82 1009.9
20260830140007 22 161 0.0 6.4 0.00 0.00 0.00 83 1009.9
20260830135508 22 165 1.6 6.4 0.00 0.00 0.00 83 1010.0
20260830135012 22 199 0.0 11.3 0.00 0.00 0.00 84 1010.0
20260830134536 22 115 3.2 11.3 0.00 0.00 0.00 85 1009.9
20260830134007 22 87 0.0 9.7 0.00 0.00 0.00 86 1009.9
20260830133504 21 237 0.0 8.0 0.00 0.00 0.00 87 1009.9
20260830133008 21 126 0.0 6.4 0.00 0.00 0.00 87 1009.8
20260830132508 21 100 1.6 6.4 0.00 0.00 0.00 88 1009.8
20260830132006 21 103 0.0 6.4 0.00 0.00 0.00 88 1009.9
20260830131511 21 129 1.6 6.4 0.00 0.00 0.00 88 1009.9
20260830131014 21 245 0.0 6.4 0.00 0.00 0.00 89 1009.9
20260830130507 20 108 0.0 9.7 0.00 0.00 0.00 90 1010.0
20260830130018 20 122 1.6 9.7 0.00 0.00 0.00 90 1009.9
20260830125514 20 140 0.0 4.8 0.00 0.00 0.00 91 1010.0
20260830125003 20 133 1.6 6.4 0.00 0.00 0.00 90 1009.9
20260830124515 20 149 0.0 8.0 0.00 0.00 0.00 90 1009.9
20260830124011 20 138 1.6 8.0 0.00 0.03 0.00 90 1010.0
20260830123515 20 142 0.0 6.4 0.00 0.03 0.00 91 1010.1
20260830123010 20 132 0.0 6.4 0.00 0.05 0.00 91 1010.0
20260830122510 20 133 1.6 8.0 0.00 0.08 0.00 91 1009.8
20260830122016 20 130 1.6 8.0 0.00 0.08 0.00 91 1009.7
20260830121508 20 152 1.6 4.8 0.00 0.10 0.00 91 1009.6
20260830121005 20 107 1.6 4.8 0.00 0.10 0.00 91 1009.6
20260830120509 20 100 0.0 4.8 0.00 0.13 0.00 91 1009.6
20260830120015 20 115 0.0 4.8 0.00 0.13 0.00 91 1009.5
20260830115507 20 145 1.6 4.8 0.00 0.15 0.00 91 1009.6
20260830115013 20 141 1.6 6.4 0.00 0.15 0.00 90 1009.6
20260830114523 20 145 1.6 6.4 0.00 0.18 0.00 90 1009.6
20260830114015 20 128 1.6 6.4 0.00 0.20 0.00 90 1009.5
20260830113509 20 130 1.6 6.4 0.00 0.20 0.00 90 1009.6
20260830113026 20 132 0.0 3.2 0.00 0.23 0.00 90 1009.7
20260830112518 20 125 0.0 4.8 0.00 0.25 0.00 90 1009.7
20260830112007 20 112 1.6 4.8 0.00 0.28 0.00 90 1009.7
20260830111522 20 140 1.6 4.8 0.00 0.30 0.00 90 1009.6
20260830111014 20 90 0.0 11.3 0.00 0.36 0.00 89 1009.6
20260830110516 20 123 3.2 11.3 0.00 0.41 0.00 90 1009.6
20260830110016 20 152 1.6 6.4 0.00 0.43 0.00 90 1009.6
20260830105509 20 133 1.6 8.0 0.00 0.46 0.00 89 1009.6
20260830105010 20 148 1.6 8.0 0.00 0.46 0.00 89 1009.6